Regional Weather Roundup
Issued by NWS Green Bay, WI

Home | Current Version | Previous Version | Graphics & Text | Print | Product List | Glossary Off
Versions: 1 2 3 4 5 6 7 8 9 10 11 12 13 14 15 16 17 18 19 20 21 22 23 24 25 26 27 28 29 30 31 32 33 34 35 36 37 38 39 40 41 42 43 44 45 46 47 48 49 50

000
ASUS43 KGRB 031712
RWRGRB

NORTH-CENTRAL AND NORTHEAST WISCONSIN REGIONAL WEATHER ROUNDUP
NATIONAL WEATHER SERVICE GREEN BAY WI
1200 PM CDT MON AUG 03 2015

WIZ005-009-010>012-018-019-031800-
NORTH CENTRAL WISCONSIN

CITY           SKY/WX    TMP DP  RH WIND       PRES   REMARKS
IRONWOOD       PTSUNNY   64  54  68 NW15      29.80R
MANITOWISH WTR CLOUDY    64  51  63 NW13G18   29.82S
ARBOR VITAE    CLOUDY    65  51  62 NW9       29.82R
EAGLE RIVER    CLOUDY    66  48  52 NW13G21   29.81R
LAND O LAKES   CLOUDY    65  50  59 NW7G16    29.82R
RHINELANDER    CLOUDY    68  50  52 W14G21    29.83R
PHILLIPS       PTSUNNY   68  53  58 NW8       29.83S
ANTIGO         MOSUNNY   71  47  42 NW13G21   29.82S
TOMAHAWK       MOSUNNY   69  52  55 W10G18    29.83S
MERRILL        NOT AVBL
$$

WIZ013-073-031800-
NORTHEAST WISCONSIN

CITY           SKY/WX    TMP DP  RH WIND       PRES   REMARKS
IRON MOUNTAIN  MOSUNNY   73  49  42 W16G22    29.75S
MARINETTE      CLOUDY    70  50  49 W5        29.76S
OCONTO         CLOUDY    71  51  49 NW6       29.78S
$$

WIZ017-030-035>037-045-031800-
CENTRAL WISCONSIN

CITY           SKY/WX    TMP DP  RH WIND       PRES   REMARKS
MEDFORD        PTSUNNY   69  52  54 NW12G21   29.85S
WAUSAU         SUNNY     74  47  38 W20       29.82R
MOSINEE        MOSUNNY   72  46  40 W13G22    29.85R
MARSHFIELD     SUNNY     73  45  36 NW17G25   29.85S
WISC RAPIDS    SUNNY     77  44  30 NW18      29.86F
STEVENS POINT  SUNNY     71  45  39 W14G25    29.85S
WAUPACA        MOSUNNY   76  43  30 W15G23    29.83S
SHAWANO        MOSUNNY   75  51  42 NW10G17   29.80F
CLINTONVILLE   MOSUNNY   72  45  37 N13G21    29.81S
$$

WIZ038-039-048-051-031800-
FOX VALLEY

CITY           SKY/WX    TMP DP  RH WIND       PRES   REMARKS
NWS GREEN BAY  SUNNY     75  56  51 W13       29.80S
APPLETON       MOSUNNY   73  43  33 W16G23    29.83R
OSHKOSH        MOSUNNY   75  48  38 W15G25    29.83S
FOND DU LAC    MOSUNNY   75  49  39 NW15G23   29.84S
$$

WIZ022-050-052-031800-
EAST CENTRAL WISCONSIN

CITY           SKY/WX    TMP DP  RH WIND       PRES   REMARKS
STURGEON BAY   MOSUNNY   72  54  53 W10       29.81S
MANITOWOC      PTSUNNY   73  50  44 MISG      29.81S
SHEBOYGAN      MOSUNNY   73  52  47 W13G23    29.82S
$$

LMZ563-521-522-541>543-031800-
LAKESHORE

STATION/POSITION TIME  TEMP    WIND        PRES    VSBY  WAVE
                       AIR SEA DIR/SP/G                  HT/PER
                 (UTC) (F)     (DEG/KT/KT) (MB)    (MI)  (FT/S)
SHEBOYGAN LKSHOR 1700   71     280/ 14/ 18 1009.8R
KEWAUNEE LKSHORE 1600   71     310/  5/  9 1008.5R
ALGOMA MARINA    1612          320/  7/ 10   N/A
NORTHPORT PIER   1600   69     290/  6/ 11 1007.8S
N MID LAKE BUOY  1650   65 68  250/  4/  6 1007.6R         2/ 6
S GREEN BAY BUOY 1700   68 71  210/ 14/ 17 1010.1S
SISTER BAY LKSHO 1618   74     290/ 10/ 12   N/A
CHAMBERS ISLAND  1600   70     210/  5/ 10 1008.1S
MENOMINEE LKSHOR 1600   70     250/ 10/ 14 1008.8R
$$


USA.gov is the U.S. government's official web portal to all federal, state and local government web resources and services.